Weather History for New Delhi, India

Change the Weather History Date:

Monday, October 14, 2013

  Actual Average Record
Temperature  
Mean Temperature 82 °F -  
Max Temperature 89 °F 84 °F 96 °F (2006)
Min Temperature 75 °F 62 °F 64 °F (2003)
Cooling Degree Days 17    
Growing Degree Days 32 (Base 50)    
Moisture  
Dew Point 73 °F    
Average Humidity 76    
Maximum Humidity 94    
Minimum Humidity 55    
Precipitation  
Precipitation 0.00 in - - ()
Sea Level Pressure  
Sea Level Pressure 29.77 in    
Wind  
Wind Speed 3 mph ()    
Max Wind Speed 12 mph    
Max Gust Speed -    
Visibility 1.4 miles    
Events      
Averages and records for this station are not official NWS values.
T = Trace of Precipitation, MM = Missing Value Source: Averaged Metar Reports

Daily Weather History Graph

Daily Weather History Graph

Search for Another Location

Airport:

Trip Planner

Search our weather history database for the weather conditions in past years. The results will help you decide how hot, cold, wet, or windy it might be!

Date:

Astronomy

Oct. 14, 2013 Rise Set
Actual Time 6:21 AM IST 5:53 PM IST
Civil Twilight 5:57 AM IST 6:16 PM IST
Nautical Twilight 5:30 AM IST 6:44 PM IST
Astronomical Twilight 5:03 AM IST 7:11 PM IST
Moon 2:44 PM IST (10/14) 1:30 AM IST (10/14)
Length of Visible Light 12h 18m
Length of Day
11h 31m
Waxing Gibbous, 75% of the Moon is Illuminated
Oct 14
Waxing Gibbous
Oct 19
Full
Oct 27
Last Quarter
Nov 3
New
Nov 10
First Quarter

Hourly Weather History & Observations

Time (IST) Temp. Heat Index Dew Point Humidity Pressure Visibility Wind Dir Wind Speed Gust Speed Precip Events Conditions
12:00 AM 78.8 °F - 75.2 °F 89% 29.80 in 0.9 mi Calm Calm - N/A   Partly Cloudy
12:30 AM 78.8 °F - 73.4 °F 83% 29.80 in 0.9 mi Calm Calm - N/A   Partly Cloudy
1:00 AM 78.8 °F - 73.4 °F 83% 29.80 in 1.1 mi Calm Calm - N/A   Partly Cloudy
1:30 AM 78.8 °F - 73.4 °F 83% 29.80 in 1.1 mi Calm Calm - N/A   Partly Cloudy
2:00 AM 77.0 °F - 73.4 °F 89% 29.77 in 1.1 mi Calm Calm - N/A   Partly Cloudy
2:30 AM 77.0 °F - 75.2 °F 94% 29.77 in 1.0 mi Calm Calm - N/A   Partly Cloudy
3:00 AM 77.0 °F - 75.2 °F 94% 29.77 in 1.0 mi Calm Calm - N/A   Partly Cloudy
3:30 AM 77.0 °F - 75.2 °F 94% 29.77 in 1.0 mi Calm Calm - N/A   Partly Cloudy
4:00 AM 77.0 °F - 73.4 °F 89% 29.77 in 1.1 mi Calm Calm - N/A   Partly Cloudy
4:30 AM 75.2 °F - 73.4 °F 94% 29.77 in 1.1 mi Calm Calm - N/A   Partly Cloudy
5:00 AM 75.2 °F - 73.4 °F 94% 29.77 in 1.1 mi Calm Calm - N/A   Partly Cloudy
5:30 AM 75.2 °F - 73.4 °F 94% 29.77 in 1.1 mi Calm Calm - N/A   Partly Cloudy
6:00 AM 75.2 °F - 73.4 °F 94% 29.77 in 1.0 mi Calm Calm - N/A   Partly Cloudy
6:30 AM 75.2 °F - 73.4 °F 94% 29.77 in 1.0 mi Calm Calm - N/A   Partly Cloudy
7:00 AM 77.0 °F - 73.4 °F 89% 29.80 in 1.0 mi Calm Calm - N/A   Partly Cloudy
7:30 AM 77.0 °F - 73.4 °F 89% 29.80 in 0.9 mi Calm Calm - N/A   Partly Cloudy
8:00 AM 78.8 °F - 75.2 °F 89% 29.80 in 0.9 mi SW 4.6 mph - N/A   Scattered Clouds
9:00 AM 78.8 °F - 75.2 °F 89% 29.83 in 1.0 mi SW 6.9 mph - N/A   Scattered Clouds
9:30 AM 80.6 °F 86.2 °F 75.2 °F 84% 29.83 in 1.0 mi WSW 6.9 mph - N/A   Mostly Cloudy
10:00 AM 82.4 °F 89.5 °F 75.2 °F 79% 29.83 in 1.0 mi SW 5.8 mph - N/A   Mostly Cloudy
10:30 AM 82.4 °F 89.5 °F 75.2 °F 79% 29.83 in 1.0 mi WSW 5.8 mph - N/A   Mostly Cloudy
11:00 AM 84.2 °F 90.9 °F 73.4 °F 70% 29.80 in 1.1 mi WSW 6.9 mph - N/A   Mostly Cloudy
11:30 AM 86.0 °F 93.4 °F 73.4 °F 66% 29.80 in 1.1 mi SW 6.9 mph - N/A   Mostly Cloudy
12:00 PM 86.0 °F 95.1 °F 75.2 °F 70% 29.80 in 1.1 mi West 6.9 mph - N/A   Haze
12:30 PM 86.0 °F 95.1 °F 75.2 °F 70% 29.77 in 1.1 mi West 8.1 mph - N/A   Haze
1:00 PM 87.8 °F 95.6 °F 73.4 °F 62% 29.77 in 1.3 mi West 9.2 mph - N/A   Haze
1:30 PM 87.8 °F 93.8 °F 71.6 °F 58% 29.74 in 1.6 mi WNW 10.4 mph - N/A   Haze
2:00 PM 87.8 °F 93.8 °F 71.6 °F 58% 29.74 in 1.4 mi NW 11.5 mph - N/A   Haze
2:30 PM 89.6 °F 96.2 °F 71.6 °F 55% 29.71 in 1.7 mi NW 10.4 mph - N/A   Haze
3:30 PM 89.6 °F 96.2 °F 71.6 °F 55% 29.71 in 2.2 mi NW 11.5 mph - N/A   Haze
4:00 PM 89.6 °F 96.2 °F 71.6 °F 55% 29.71 in 2.2 mi NW 11.5 mph - N/A   Haze
4:30 PM 89.6 °F 96.2 °F 71.6 °F 55% 29.71 in 2.2 mi WNW 10.4 mph - N/A   Haze
5:00 PM 87.8 °F 93.8 °F 71.6 °F 58% 29.71 in 2.2 mi NW 9.2 mph - N/A   Haze
5:30 PM 87.8 °F 93.8 °F 71.6 °F 58% 29.71 in 2.2 mi NW 8.1 mph - N/A   Haze
6:00 PM 86.0 °F 91.8 °F 71.6 °F 62% 29.74 in 2.2 mi NW 6.9 mph - N/A   Haze
6:30 PM 84.2 °F 89.6 °F 71.6 °F 66% 29.74 in 2.2 mi NW 5.8 mph - N/A   Haze
7:00 PM 84.2 °F 89.6 °F 71.6 °F 66% 29.74 in - NW 4.6 mph - N/A   Haze
8:00 PM 82.4 °F 87.2 °F 71.6 °F 70% 29.77 in 1.7 mi WNW 3.5 mph - N/A   Haze
8:30 PM 82.4 °F 87.2 °F 71.6 °F 70% 29.77 in 1.7 mi Calm Calm - N/A   Haze
9:00 PM 82.4 °F 87.2 °F 71.6 °F 70% 29.77 in 1.7 mi NW 3.5 mph - N/A   Haze
9:30 PM 82.4 °F 87.2 °F 71.6 °F 70% 29.80 in 1.7 mi NW 3.5 mph - N/A   Haze
10:00 PM 82.4 °F 87.2 °F 71.6 °F 70% 29.80 in 1.7 mi Calm Calm - N/A   Haze
10:30 PM 80.6 °F 84.6 °F 71.6 °F 74% 29.80 in 1.7 mi Calm Calm - N/A   Haze
11:00 PM 78.8 °F - 71.6 °F 78% 29.80 in 1.7 mi Calm Calm - N/A   Scattered Clouds
11:30 PM 78.8 °F - 71.6 °F 78% 29.80 in 1.7 mi Calm Calm - N/A   Scattered Clouds